CW3996 Weather Reports


Display with metric or nautical units.
time (UTC)temp
F
wind
direction
speed
MPH
gust
MPH
rain 1hr
in
rain 24hr
in
rain mn
in
humidity
%
barometer
mb
20260904092221 69 198 9.0 19.0 0.00 0.00 0.00 8 1013.4
20260904091738 68 202 6.0 15.0 0.00 0.00 0.00 8 1013.3
20260904091252 69 183 7.0 15.0 0.00 0.00 0.00 7 1013.3
20260904090725 69 169 8.0 15.0 0.00 0.00 0.00 7 1013.3
20260904090241 69 195 8.0 15.0 0.00 0.00 0.00 7 1013.3
20260904085754 69 180 8.0 15.0 0.00 0.00 0.00 6 1013.3
20260904085227 69 167 10.0 14.0 0.00 0.00 0.00 7 1013.3
20260904084721 69 173 7.0 12.0 0.00 0.00 0.00 7 1013.2
20260904084236 69 190 6.0 14.0 0.00 0.00 0.00 6 1013.3
20260904083729 69 172 7.0 14.0 0.00 0.00 0.00 6 1013.3
20260904083223 69 175 9.0 13.0 0.00 0.00 0.00 5 1013.3
20260904082721 69 178 7.0 13.0 0.00 0.00 0.00 5 1013.3
20260904082215 69 193 6.0 14.0 0.00 0.00 0.00 5 1013.3
20260904081729 69 162 8.0 14.0 0.00 0.00 0.00 5 1013.2
20260904081223 69 191 8.0 17.0 0.00 0.00 0.00 5 1013.3
20260904080737 70 180 7.0 17.0 0.00 0.00 0.00 4 1013.3
20260904080232 70 159 7.0 18.0 0.00 0.00 0.00 4 1013.4
20260904075725 70 163 8.0 20.0 0.00 0.00 0.00 4 1013.3
20260904075219 70 192 8.0 20.0 0.00 0.00 0.00 4 1013.3
20260904074717 70 179 9.0 15.0 0.00 0.00 0.00 4 1013.2
20260904074232 70 151 7.0 13.0 0.00 0.00 0.00 4 1013.3
20260904073725 70 163 8.0 13.0 0.00 0.00 0.00 4 1013.3
20260904073220 69 159 7.0 12.0 0.00 0.00 0.00 5 1013.3
20260904072713 69 165 7.0 12.0 0.00 0.00 0.00 5 1013.2
20260904072248 69 158 7.0 12.0 0.00 0.00 0.00 5 1013.2
20260904071721 69 159 9.0 12.0 0.00 0.00 0.00 4 1013.2
20260904070729 70 162 6.0 20.0 0.00 0.00 0.00 4 1013.2
20260904070228 71 178 8.0 23.0 0.00 0.00 0.00 4 1013.2
20260904065722 70 188 12.0 23.0 0.00 0.00 0.00 3 1013.2
20260904065216 70 183 8.0 15.0 0.00 0.00 0.00 4 1013.2
20260904064730 70 175 10.0 18.0 0.00 0.00 0.00 3 1013.1
20260904064224 71 203 12.0 18.0 0.00 0.00 0.00 3 1013.1
20260904063718 70 188 11.0 18.0 0.00 0.00 0.00 4 1013.0
20260904063252 70 180 8.0 13.0 0.00 0.00 0.00 4 1013.1
20260904062724 70 190 9.0 16.0 0.00 0.00 0.00 4 1013.0
20260904062222 71 194 8.0 16.0 0.00 0.00 0.00 3 1013.0
20260904061717 71 186 9.0 13.0 0.00 0.00 0.00 3 1013.0
20260904061231 71 143 9.0 15.0 0.00 0.00 0.00 4 1013.0
20260904060725 70 180 8.0 15.0 0.00 0.00 0.00 4 1013.0
20260904060220 70 168 7.0 16.0 0.00 0.00 0.00 4 1013.0
20260904055714 70 196 7.0 12.0 0.00 0.00 0.00 4 1013.0
20260904055229 71 184 8.0 13.0 0.00 0.00 0.00 4 1013.0
20260904054723 70 182 7.0 13.0 0.00 0.00 0.00 4 1012.9
20260904054241 71 180 6.0 10.0 0.00 0.00 0.00 4 1012.9
20260904053754 71 187 7.0 13.0 0.00 0.00 0.00 5 1012.9
20260904053227 71 176 7.0 13.0 0.00 0.00 0.00 4 1012.9
20260904052721 72 189 7.0 13.0 0.00 0.00 0.00 4 1012.8
20260904052214 72 180 7.0 12.0 0.00 0.00 0.00 4 1012.8
20260904051728 71 211 6.0 11.0 0.00 0.00 0.00 5 1012.8
20260904051223 71 176 7.0 10.0 0.00 0.00 0.00 6 1012.8
20260904050718 71 184 5.0 11.0 0.00 0.00 0.00 5 1012.8
20260904050233 71 171 5.0 10.0 0.00 0.00 0.00 6 1012.7
20260904045730 71 167 6.0 10.0 0.00 0.00 0.00 5 1012.8
20260904045244 72 165 7.0 10.0 0.00 0.00 0.00 5 1012.8
20260904044737 72 157 7.0 10.0 0.00 0.00 0.00 5 1012.8
20260904044230 72 165 6.0 11.0 0.00 0.00 0.00 4 1012.8
20260904043724 71 181 7.0 12.0 0.00 0.00 0.00 5 1012.8
20260904043218 72 182 6.0 15.0 0.00 0.00 0.00 5 1012.8
20260904042732 72 157 8.0 15.0 0.00 0.00 0.00 5 1012.8
20260904042226 72 157 7.0 13.0 0.00 0.00 0.00 5 1012.8
20260904041720 73 184 7.0 13.0 0.00 0.00 0.00 5 1012.8
20260904041219 73 183 8.0 16.0 0.00 0.00 0.00 5 1012.8
20260904040752 73 178 9.0 16.0 0.00 0.00 0.00 5 1012.8
20260904040246 74 180 8.0 15.0 0.00 0.00 0.00 5 1012.7
20260904035718 74 166 11.0 18.0 0.00 0.00 0.00 4 1012.6
20260904035232 74 165 8.0 18.0 0.00 0.00 0.00 4 1012.5
20260904034725 74 141 9.0 15.0 0.00 0.00 0.00 5 1012.6
20260904034220 74 184 8.0 15.0 0.00 0.00 0.00 5 1012.5
20260904033713 74 157 8.0 15.0 0.00 0.00 0.00 6 1012.6
20260904033228 74 193 9.0 18.0 0.00 0.00 0.00 6 1012.6
20260904032726 74 183 5.0 14.0 0.00 0.00 0.00 6 1012.5
20260904032220 74 180 9.0 14.0 0.00 0.00 0.00 6 1012.5
20260904031714 74 173 7.0 13.0 0.00 0.00 0.00 6 1012.4
20260904031228 74 185 7.0 13.0 0.00 0.00 0.00 6 1012.4
20260904030722 74 197 7.0 12.0 0.00 0.00 0.00 6 1012.3
20260904030217 74 149 7.0 11.0 0.00 0.00 0.00 6 1012.3
20260904025731 74 190 6.0 12.0 0.00 0.00 0.00 7 1012.3
20260904025228 74 179 5.0 12.0 0.00 0.00 0.00 6 1012.3
20260904024722 74 178 5.0 10.0 0.00 0.00 0.00 6 1012.2
20260904024216 75 176 6.0 10.0 0.00 0.00 0.00 6 1012.1
20260904023730 74 163 8.0 12.0 0.00 0.00 0.00 6 1012.1
20260904023244 75 163 8.0 12.0 0.00 0.00 0.00 6 1012.1
20260904022717 75 182 6.0 12.0 0.00 0.00 0.00 5 1012.1
20260904022231 75 170 9.0 12.0 0.00 0.00 0.00 6 1012.0
20260904021724 76 196 5.0 12.0 0.00 0.00 0.00 5 1012.0
20260904021224 76 186 7.0 13.0 0.00 0.00 0.00 5 1012.0
20260904020718 77 193 7.0 13.0 0.00 0.00 0.00 4 1012.0
20260904020233 77 217 9.0 16.0 0.00 0.00 0.00 4 1011.9
20260904015726 78 191 10.0 17.0 0.00 0.00 0.00 3 1011.9
20260904015221 78 195 12.0 20.0 0.00 0.00 0.00 3 1011.8
20260904014715 79 197 12.0 22.0 0.00 0.00 0.00 3 1011.8
20260904014228 79 220 16.0 22.0 0.00 0.00 0.00 2 1011.8
20260904013722 79 216 12.0 19.0 0.00 0.00 0.00 2 1011.8
20260904013220 80 202 12.0 27.0 0.00 0.00 0.00 2 1011.8
20260904012754 80 217 11.0 27.0 0.00 0.00 0.00 2 1011.9
20260904012227 80 215 14.0 27.0 0.00 0.00 0.00 2 1011.8
20260904011720 80 209 12.0 25.0 0.00 0.00 0.00 2 1011.8
20260904011215 81 229 18.0 25.0 0.00 0.00 0.00 2 1011.7
20260904010728 81 211 13.0 23.0 0.00 0.00 0.00 2 1011.7
20260904010244 82 221 14.0 28.0 0.00 0.00 0.00 2 1011.7
20260904005736 82 214 17.0 28.0 0.00 0.00 0.00 2 1011.7
20260904005250 82 244 14.0 25.0 0.00 0.00 0.00 2 1011.7
20260904004722 82 222 20.0 26.0 0.00 0.00 0.00 2 1011.7
20260904004221 82 212 14.0 25.0 0.00 0.00 0.00 2 1011.7
20260904003714 82 225 16.0 27.0 0.00 0.00 0.00 2 1011.7
20260904003249 83 221 18.0 26.0 0.00 0.00 0.00 2 1011.6
20260904002721 83 227 21.0 26.0 0.00 0.00 0.00 2 1011.7
20260904002216 83 213 16.0 25.0 0.00 0.00 0.00 2 1011.6
20260904001731 84 188 15.0 28.0 0.00 0.00 0.00 2 1011.7
20260904001224 83 223 17.0 28.0 0.00 0.00 0.00 2 1011.7
20260904000718 84 225 18.0 28.0 0.00 0.00 0.00 2 1011.7
20260904000218 84 212 18.0 30.0 0.00 0.00 0.00 2 1011.7
20260903235731 84 253 17.0 30.0 0.00 0.00 0.00 2 1011.7
20260903235225 84 234 19.0 31.0 0.00 0.00 0.00 2 1011.7
20260903234719 85 215 19.0 31.0 0.00 0.00 0.00 2 1011.7
20260903234213 85 211 18.0 29.0 0.00 0.00 0.00 2 1011.7
20260903233747 85 242 17.0 29.0 0.00 0.00 0.00 2 1011.7
20260903233220 85 196 15.0 25.0 0.00 0.00 0.00 2 1011.7
20260903232714 85 238 18.0 27.0 0.00 0.00 0.00 2 1011.7
20260903232228 85 223 20.0 27.0 0.00 0.00 0.00 2 1011.8
20260903231726 85 223 18.0 27.0 0.00 0.00 0.00 2 1011.8
20260903231220 85 212 19.0 28.0 0.00 0.00 0.00 2 1011.9
20260903230714 85 215 21.0 28.0 0.00 0.00 0.00 2 1011.9
20260903230229 85 218 16.0 32.0 0.00 0.00 0.00 2 1012.0
20260903225722 85 229 18.0 32.0 0.00 0.00 0.00 2 1012.1
20260903225217 85 217 20.0 29.0 0.00 0.00 0.00 2 1012.1
20260903224730 85 231 19.0 28.0 0.00 0.00 0.00 3 1012.3
20260903224229 85 231 18.0 28.0 0.00 0.00 0.00 2 1012.3
20260903223722 86 220 16.0 27.0 0.00 0.00 0.00 3 1012.3
20260903223236 85 235 18.0 27.0 0.00 0.00 0.00 3 1012.2
20260903222729 85 211 19.0 28.0 0.00 0.00 0.00 3 1012.3
20260903222223 85 247 15.0 29.0 0.00 0.00 0.00 3 1012.4
20260903221717 86 227 17.0 29.0 0.00 0.00 0.00 3 1012.5
20260903221231 86 230 16.0 22.0 0.00 0.00 0.00 3 1012.5
20260903220725 85 211 13.0 26.0 0.00 0.00 0.00 3 1012.7
20260903220224 85 209 12.0 26.0 0.00 0.00 0.00 4 1012.8
20260903215718 85 221 15.0 23.0 0.00 0.00 0.00 3 1012.9
20260903215232 86 228 14.0 23.0 0.00 0.00 0.00 3 1012.8
20260903214726 85 202 11.0 23.0 0.00 0.00 0.00 4 1012.9
20260903214220 85 238 14.0 25.0 0.00 0.00 0.00 3 1013.0
20260903213715 85 238 14.0 25.0 0.00 0.00 0.00 4 1013.1
20260903213229 86 211 14.0 23.0 0.00 0.00 0.00 3 1013.0
20260903212742 85 242 10.0 18.0 0.00 0.00 0.00 3 1013.0
20260903212220 85 187 12.0 18.0 0.00 0.00 0.00 3 1013.2
20260903211714 85 208 14.0 22.0 0.00 0.00 0.00 3 1013.3
20260903211228 85 201 13.0 22.0 0.00 0.00 0.00 3 1013.3
20260903210722 85 210 10.0 20.0 0.00 0.00 0.00 4 1013.4
20260903210237 84 205 11.0 19.0 0.00 0.00 0.00 3 1013.4
20260903205729 84 204 13.0 19.0 0.00 0.00 0.00 4 1013.6
20260903205224 83 178 9.0 21.0 0.00 0.00 0.00 4 1013.7
20260903204737 83 167 9.0 21.0 0.00 0.00 0.00 3 1013.8
20260903204231 84 211 12.0 18.0 0.00 0.00 0.00 3 1013.8
20260903203745 84 211 9.0 19.0 0.00 0.00 0.00 3 1014.0
20260903203221 84 248 12.0 25.0 0.00 0.00 0.00 2 1014.0
20260903202715 83 215 12.0 25.0 0.00 0.00 0.00 3 1014.1
20260903202230 83 238 12.0 24.0 0.00 0.00 0.00 2 1014.2
20260903201743 84 207 14.0 24.0 0.00 0.00 0.00 1 1014.3
20260903201237 84 205 11.0 22.0 0.00 0.00 0.00 2 1014.5
20260903200730 83 217 13.0 22.0 0.00 0.00 0.00 2 1014.4
20260903200225 83 200 15.0 22.0 0.00 0.00 0.00 2 1014.5
20260903195718 83 214 10.0 21.0 0.00 0.00 0.00 2 1014.5
20260903195216 82 243 14.0 21.0 0.00 0.00 0.00 3 1014.7
20260903194731 82 173 10.0 21.0 0.00 0.00 0.00 2 1014.8
20260903194225 82 226 8.0 22.0 0.00 0.00 0.00 2 1014.7
20260903193718 82 188 7.0 22.0 0.00 0.00 0.00 3 1014.8
20260903193233 82 206 14.0 21.0 0.00 0.00 0.00 2 1014.9
20260903192746 82 209 9.0 20.0 0.00 0.00 0.00 2 1015.0
20260903192220 82 191 12.0 24.0 0.00 0.00 0.00 2 1015.1
20260903191754 82 236 17.0 24.0 0.00 0.00 0.00 2 1015.2
20260903191227 82 227 11.0 17.0 0.00 0.00 0.00 3 1015.2
20260903190725 82 200 8.0 21.0 0.00 0.00 0.00 3 1015.3
20260903190241 82 154 12.0 22.0 0.00 0.00 0.00 3 1015.5
20260903185713 81 227 14.0 22.0 0.00 0.00 0.00 2 1015.5
20260903185247 81 239 13.0 22.0 0.00 0.00 0.00 3 1015.5
20260903184720 81 228 11.0 21.0 0.00 0.00 0.00 3 1015.6
20260903184214 81 213 12.0 21.0 0.00 0.00 0.00 4 1015.6
20260903183748 81 198 10.0 16.0 0.00 0.00 0.00 3 1015.8
20260903183221 81 209 8.0 15.0 0.00 0.00 0.00 4 1015.8
20260903182715 79 204 4.0 15.0 0.00 0.00 0.00 7 1015.9
20260903182213 79 210 9.0 17.0 0.00 0.00 0.00 4 1016.0
20260903181727 80 217 10.0 18.0 0.00 0.00 0.00 4 1016.1
20260903181222 79 217 11.0 18.0 0.00 0.00 0.00 4 1016.1
20260903180716 79 191 10.0 21.0 0.00 0.00 0.00 6 1016.2
20260903180231 79 193 10.0 21.0 0.00 0.00 0.00 6 1016.2
20260903175724 78 155 11.0 21.0 0.00 0.00 0.00 4 1016.3
20260903175218 79 203 9.0 18.0 0.00 0.00 0.00 5 1016.4
20260903174732 78 215 7.0 18.0 0.00 0.00 0.00 6 1016.4
20260903174231 78 219 11.0 18.0 0.00 0.00 0.00 5 1016.4
20260903173725 78 204 11.0 20.0 0.00 0.00 0.00 5 1016.6
20260903173219 77 186 14.0 20.0 0.00 0.00 0.00 3 1016.6
20260903172733 77 205 10.0 19.0 0.00 0.00 0.00 5 1016.6
20260903172227 77 213 11.0 19.0 0.00 0.00 0.00 5 1016.6
20260903171721 77 164 9.0 18.0 0.00 0.00 0.00 4 1016.7
20260903171215 76 180 12.0 18.0 0.00 0.00 0.00 4 1016.7
20260903170729 76 206 11.0 17.0 0.00 0.00 0.00 4 1016.6
20260903170228 76 196 7.0 14.0 0.00 0.00 0.00 5 1016.7
20260903165721 76 189 6.0 16.0 0.00 0.00 0.00 5 1016.7
20260903165215 76 225 8.0 17.0 0.00 0.00 0.00 5 1016.6
20260903164729 76 190 8.0 17.0 0.00 0.00 0.00 6 1016.6
20260903164223 76 200 8.0 14.0 0.00 0.00 0.00 5 1016.6
20260903163717 75 213 9.0 14.0 0.00 0.00 0.00 6 1016.6
20260903163231 75 187 10.0 15.0 0.00 0.00 0.00 5 1016.6
20260903162725 75 201 10.0 20.0 0.00 0.00 0.00 4 1016.6
20260903162224 74 197 12.0 20.0 0.00 0.00 0.00 5 1016.7
20260903161717 74 204 12.0 23.0 0.00 0.00 0.00 5 1016.7
20260903161232 74 190 12.0 23.0 0.00 0.00 0.00 5 1016.6
20260903160746 74 192 14.0 19.0 0.00 0.00 0.00 5 1016.6
20260903160240 74 209 10.0 21.0 0.00 0.00 0.00 4 1016.6
20260903155732 74 207 11.0 21.0 0.00 0.00 0.00 5 1016.6
20260903155227 74 204 15.0 21.0 0.00 0.00 0.00 5 1016.6
20260903154720 73 179 8.0 21.0 0.00 0.00 0.00 6 1016.6
20260903154218 73 200 12.0 20.0 0.00 0.00 0.00 5 1016.6
20260903153731 73 196 12.0 20.0 0.00 0.00 0.00 6 1016.6
20260903153225 73 188 12.0 18.0 0.00 0.00 0.00 5 1016.6
20260903152719 73 165 9.0 14.0 0.00 0.00 0.00 7 1016.7
20260903152213 73 172 8.0 18.0 0.00 0.00 0.00 6 1016.7
20260903151747 72 184 9.0 18.0 0.00 0.00 0.00 6 1016.7
20260903151220 72 195 9.0 17.0 0.00 0.00 0.00 7 1016.7
20260903150734 72 154 6.0 15.0 0.00 0.00 0.00 7 1016.7
20260903150228 72 218 10.0 16.0 0.00 0.00 0.00 6 1016.7
20260903145742 71 194 9.0 16.0 0.00 0.00 0.00 7 1016.7
20260903145219 71 189 6.0 14.0 0.00 0.00 0.00 7 1016.7
20260903144732 71 189 8.0 15.0 0.00 0.00 0.00 6 1016.7
20260903144227 71 161 8.0 16.0 0.00 0.00 0.00 6 1016.6
20260903143720 70 141 8.0 18.0 0.00 0.00 0.00 7 1016.6
20260903143215 70 136 9.0 15.0 0.00 0.00 0.00 7 1016.6
20260903142728 70 180 9.0 17.0 0.00 0.00 0.00 7 1016.6
20260903142222 69 175 8.0 17.0 0.00 0.00 0.00 7 1016.4
20260903141720 69 160 8.0 17.0 0.00 0.00 0.00 8 1016.4
20260903141232 68 198 11.0 19.0 0.00 0.00 0.00 8 1016.4
20260903140725 68 202 10.0 19.0 0.00 0.00 0.00 8 1016.2
20260903140220 68 165 9.0 19.0 0.00 0.00 0.00 8 1016.3
20260903135714 68 171 8.0 17.0 0.00 0.00 0.00 7 1016.3
20260903135228 67 193 7.0 17.0 0.00 0.00 0.00 9 1016.2
20260903134722 67 168 8.0 17.0 0.00 0.00 0.00 8 1016.2
20260903134215 67 154 9.0 17.0 0.00 0.00 0.00 8 1016.1
20260903133713 67 164 10.0 17.0 0.00 0.00 0.00 8 1016.0
20260903133227 67 182 7.0 20.0 0.00 0.00 0.00 8 1016.0
20260903132721 67 164 10.0 20.0 0.00 0.00 0.00 8 1015.9
20260903132215 67 153 9.0 19.0 0.00 0.00 0.00 8 1015.9
20260903131729 68 167 10.0 19.0 0.00 0.00 0.00 8 1015.9
20260903131243 67 152 10.0 18.0 0.00 0.00 0.00 7 1015.9
20260903130715 67 162 10.0 18.0 0.00 0.00 0.00 8 1015.8
20260903130231 67 161 10.0 18.0 0.00 0.00 0.00 8 1015.7
20260903125729 67 201 11.0 23.0 0.00 0.00 0.00 8 1015.7
20260903125223 67 173 11.0 23.0 0.00 0.00 0.00 8 1015.6
20260903124716 67 171 11.0 18.0 0.00 0.00 0.00 8 1015.5
20260903124251 67 184 9.0 19.0 0.00 0.00 0.00 7 1015.5
20260903123723 68 181 9.0 19.0 0.00 0.00 0.00 7 1015.6
20260903123217 67 153 10.0 19.0 0.00 0.00 0.00 7 1015.6
20260903122731 67 170 9.0 21.0 0.00 0.00 0.00 7 1015.5
20260903122225 68 176 13.0 21.0 0.00 0.00 0.00 7 1015.5
20260903121723 68 198 13.0 22.0 0.00 0.00 0.00 6 1015.4
20260903121217 68 173 11.0 22.0 0.00 0.00 0.00 6 1015.3
20260903120731 68 143 12.0 23.0 0.00 0.00 0.00 6 1015.4
20260903120226 68 197 13.0 26.0 0.00 0.00 0.00 6 1015.3
20260903115719 68 148 13.0 26.0 0.00 0.00 0.00 6 1015.4
20260903115213 68 206 14.0 22.0 0.00 0.00 0.00 5 1015.4
20260903114727 68 173 10.0 23.0 0.00 0.00 0.00 6 1015.4
20260903114221 68 207 13.0 23.0 0.00 0.00 0.00 5 1015.4
20260903113719 68 187 11.0 22.0 0.00 0.00 0.00 5 1015.4
20260903113213 68 186 10.0 17.0 0.00 0.00 0.00 5 1015.4
20260903112728 68 174 9.0 21.0 0.00 0.00 0.00 5 1015.4
20260903112222 68 181 10.0 21.0 0.00 0.00 0.00 6 1015.4
20260903111715 68 210 12.0 23.0 0.00 0.00 0.00 5 1015.3
20260903111229 69 196 13.0 30.0 0.00 0.00 0.00 5 1015.3
20260903110723 68 159 14.0 30.0 0.00 0.00 0.00 5 1015.3
20260903110222 68 209 11.0 20.0 0.00 0.00 0.00 5 1015.3
20260903105715 69 192 12.0 23.0 0.00 0.00 0.00 5 1015.4
20260903105227 69 203 13.0 25.0 0.00 0.00 0.00 4 1015.3
20260903104721 69 171 12.0 25.0 0.00 0.00 0.00 4 1015.4
20260903104235 69 166 15.0 26.0 0.00 0.00 0.00 4 1015.4
20260903103728 69 163 11.0 25.0 0.00 0.00 0.00 5 1015.3
20260903103222 69 133 15.0 26.0 0.00 0.00 0.00 5 1015.3
20260903102715 69 170 13.0 26.0 0.00 0.00 0.00 5 1015.2
20260903102229 69 185 13.0 25.0 0.00 0.00 0.00 5 1015.2
20260903101727 68 166 14.0 21.0 0.00 0.00 0.00 5 1015.3
20260903101221 68 178 14.0 21.0 0.00 0.00 0.00 5 1015.2
20260903100715 68 198 11.0 25.0 0.00 0.00 0.00 6 1015.2
20260903100230 68 200 11.0 25.0 0.00 0.00 0.00 6 1015.3
20260903095723 68 171 11.0 19.0 0.00 0.00 0.00 6 1015.3
20260903095216 68 181 12.0 20.0 0.00 0.00 0.00 6 1015.3
20260903094731 68 192 11.0 20.0 0.00 0.00 0.00 6 1015.4
20260903094225 68 193 12.0 20.0 0.00 0.00 0.00 6 1015.5
20260903093722 68 198 10.0 21.0 0.00 0.00 0.00 6 1015.5
20260903093216 69 180 12.0 21.0 0.00 0.00 0.00 5 1015.5
20260903092730 68 184 10.0 20.0 0.00 0.00 0.00 6 1015.6